Location: La Junie
(44.7428°N, 2.1773°E)
Time: 07:58:28
(UTC+00:00)

Cosmos 2219 Rocket - Pass Details

Date: 15 May 2026
Orbit: 826 x 846 km, 71.0° (Epoch: 5 June)

Event Time Altitude Azimuth Distance (km) Brightness Sun altitude
Rises 23:43:22 0° 315° (NW) 3,407 6.0 -26.2°
Reaches altitude 10° 23:47:18 10° 289° (WNW) 2,469 4.8 -26.2°
Maximum altitude 23:49:37 13° 264° (W) 2,278 4.4 -26.2°
Enters shadow 23:49:53 13° 261° (W) 2,280 4.3 -26.2°
